Temp
12 12 12 13 14 14 15 15 16 16 16 16 17 18 18 18 18 17 16 24 24 23 22 22 21 22 21 20 20 18 17 17 21 21 23 23 24 24 24 24 24 23 21 22 23
11 11 11 11 12 14 14 15 15 15 16 16 16 16 17 17 16 15 24 23 23 22 22 21 20 21 19 20 19 18 16 19 21 23 23 23 24 24 24 23 23 23 22 21 21
11 12 13 14 14 14 15 15 16 17 17 17 16 17 17 17 15 20 23 23 23 23 22 22 21 21 21 20 20 18 17 19 21 22 23 24 23 23 23 22 21 22 22 20 20
11 11 11 13 13 13 14 16 16 17 17 17 17 17 17 16 21 24 24 24 23 22 22 21 20 19 19 20 19 19 19 20 21 22 23 23 23 23 21 21 22 21 21 19 19
11 12 12 12 12 13 15 16 17 16 16 17 16 16 17 16 17 24 24 23 22 21 21 19 20 19 19 19 20 19 20 20 20 19 20 21 20 21 21 21 21 21 19 19 19
12 12 12 12 13 14 15 16 16 16 17 17 16 16 15 16 22 23 23 22 22 21 20 20 19 19 20 20 19 20 20 19 19 20 20 21 20 20 21 21 20 20 19 19 18
10 11 12 12 13 14 16 16 17 17 18 17 16 15 14 17 22 21 21 21 22 22 19 21 21 20 20 21 20 20 19 18 19 19 19 19 19 19 20 21 19 18 18 18 17
9 11 11 12 13 14 16 17 17 18 18 17 16 14 15 20 20 21 21 20 21 21 22 22 22 20 21 20 18 19 18 18 20 19 20 21 18 19 19 18 19 18 16 16 17
10 11 12 12 13 14 16 17 16 16 16 16 15 14 16 20 19 21 21 20 20 20 21 22 21 19 19 17 16 16 16 17 18 20 20 20 18 20 19 17 18 17 16 16 15
11 11 12 12 13 14 16 16 15 15 14 14 14 15 18 20 20 20 20 21 20 19 20 20 16 17 14 15 15 17 16 16 17 20 20 19 17 18 19 19 17 16 16 15 14
10 11 12 12 13 13 17 15 10 13 11 15 14 14 16 18 19 20 20 20 20 19 17 18 17 16 16 16 17 18 17 17 17 18 19 17 17 18 18 17 17 16 15 14 13
10 10 11 12 13 13 13 9 9 9 8 12 12 12 14 15 15 18 20 18 18 17 17 17 16 18 17 16 17 17 17 16 16 18 17 17 18 18 18 19 19 18 17 15 13
10 10 11 12 13 13 10 9 9 9 7 11 13 14 15 14 15 17 18 17 18 16 16 16 18 19 18 17 17 16 16 16 17 17 17 17 16 18 18 17 17 16 16 14 13
10 10 10 13 12 10 11 10 10 9 10 14 15 16 16 16 16 17 19 18 17 17 16 16 18 19 17 18 17 16 17 17 17 17 16 18 17 18 18 16 16 15 13 12 11
9 9 10 10 10 9 10 11 10 10 15 19 18 18 17 17 18 19 19 20 17 18 18 17 17 18 19 19 17 17 18 17 18 16 16 17 16 17 16 17 17 15 13 11 11
9 9 9 10 10 9 10 11 11 13 14 17 19 18 18 18 19 18 19 20 20 19 18 18 19 19 19 20 19 19 18 16 14 15 15 17 17 17 18 19 17 14 12 11 11
8 9 9 9 8 9 11 10 13 13 16 17 16 16 16 17 18 19 17 17 18 17 17 19 18 20 20 19 18 19 18 14 16 14 15 16 15 17 18 17 17 17 12 11 11
9 9 9 9 8 9 11 11 12 15 14 15 13 15 16 16 18 15 17 16 17 18 17 16 16 19 19 20 19 17 18 15 16 13 14 15 14 18 18 17 15 15 12 11 11
8 8 8 8 8 9 8 9 11 12 11 11 12 14 14 13 12 13 16 16 15 16 17 16 16 19 20 20 20 17 16 18 14 13 13 14 16 19 17 15 14 13 12 11 11
7 6 7 8 8 9 6 10 10 10 10 10 10 10 10 10 11 10 12 14 14 13 14 15 15 18 20 19 19 18 18 17 14 16 16 15 16 19 20 18 14 12 12 11 11
6 4 7 8 9 5 4 5 8 9 9 7 8 8 8 9 10 10 11 13 13 13 13 12 13 17 18 18 17 17 17 16 17 15 16 16 17 18 20 18 16 13 12 11 11
4 5 7 8 4 4 4 7 8 8 8 8 8 8 8 8 8 9 10 13 12 13 13 12 10 11 16 18 19 19 18 18 17 15 13 14 16 19 17 15 15 13 12 11 11
2 3 6 7 -0 -1 3 6 6 6 7 7 8 8 8 8 7 8 8 10 11 11 12 13 11 11 14 16 15 14 13 13 13 14 15 14 17 17 16 15 14 13 12 11 11
0 -0 1 1 3 4 4 4 5 7 6 7 7 7 7 7 8 7 7 9 10 10 13 12 11 11 11 11 10 11 11 12 12 12 14 15 17 18 19 17 14 12 11 11 11
-0 -1 2 -2 -0 2 3 3 3 3 6 6 6 7 7 5 6 7 8 7 8 10 10 10 9 10 11 12 9 9 10 10 11 11 11 12 13 18 18 18 15 13 11 11 11
-0 -1 2 -1 -1 0 2 1 2 4 5 5 6 7 7 5 6 5 6 7 7 6 7 8 9 10 9 12 12 11 10 11 11 11 11 12 13 17 18 15 15 13 11 12 12
2 2 1 1 -0 1 3 3 4 4 5 6 6 5 5 6 7 7 6 6 6 6 6 5 7 6 6 8 9 9 12 11 12 13 12 13 15 16 17 17 17 14 12 13 13
Height
820 817 814 811 809 806 804 801 799 797 794 792 789 787 783 780 777 775 772 765 763 768 770 772 776 778 778 779 780 785 808 815 798 795 782 770 770 765 764 768 767 768 768 768 768
820 817 814 810 807 804 801 798 796 794 792 790 788 785 782 778 774 769 761 762 764 766 768 770 776 777 783 784 785 793 812 800 784 778 778 771 769 767 770 772 770 768 766 766 768
819 816 813 809 806 803 799 797 794 791 788 787 785 783 781 778 776 761 758 760 763 767 770 771 771 776 784 784 787 794 800 788 779 774 770 770 770 766 772 778 770 770 766 766 768
820 816 812 809 805 801 796 793 790 787 786 784 782 782 780 780 784 757 756 758 763 767 770 773 775 781 788 789 784 794 787 783 777 771 772 773 767 769 770 767 759 760 760 763 765
819 816 812 808 803 798 793 789 787 784 782 781 779 778 778 780 770 758 757 759 761 764 767 771 777 782 787 787 785 789 784 779 776 774 774 771 772 770 766 758 758 758 760 762 763
819 815 811 806 801 795 790 787 784 781 779 778 777 777 778 783 758 757 759 758 759 763 766 767 772 776 781 783 786 781 780 778 775 772 770 771 769 767 757 754 758 759 759 759 760
819 814 809 804 798 792 788 784 780 776 774 773 775 776 776 764 754 754 759 762 761 761 764 766 767 772 777 780 777 778 785 780 773 769 771 768 775 771 753 754 758 760 759 758 757
819 814 810 804 797 791 784 779 775 772 770 770 770 775 771 755 754 754 756 759 764 765 764 764 767 769 774 775 781 786 788 795 771 767 765 766 782 761 754 757 757 757 758 757 757
818 813 808 803 796 790 783 776 772 771 770 769 772 772 765 753 753 752 754 755 762 767 768 768 766 772 775 790 799 799 804 798 785 765 766 770 775 756 753 758 756 755 754 755 756
817 813 808 803 796 789 780 775 775 775 774 773 774 778 757 754 750 748 750 755 760 765 769 771 777 781 789 795 810 799 801 796 794 772 769 771 772 759 750 753 754 753 753 753 753
817 812 807 802 796 791 779 775 779 777 775 773 773 770 760 755 753 750 748 753 758 767 780 775 787 786 781 782 781 783 791 790 783 773 776 774 767 758 749 751 750 748 749 751 750
817 812 807 802 797 794 788 793 809 807 794 770 765 764 758 759 762 751 750 756 761 773 775 782 783 771 775 778 782 785 788 790 781 772 776 771 759 751 743 737 734 734 736 741 747
817 813 808 804 800 798 797 803 804 804 807 771 762 758 753 756 755 752 749 752 757 771 773 777 770 762 768 777 783 785 788 786 785 775 771 772 761 749 736 733 731 730 730 734 738
815 812 808 802 802 802 801 801 799 797 801 771 759 752 751 751 753 739 739 746 756 759 768 771 760 764 770 771 775 786 773 774 776 781 794 770 778 751 739 741 732 731 734 735 737
815 811 809 806 807 804 807 799 795 795 799 754 751 747 748 752 747 741 739 742 754 755 760 763 760 762 762 760 770 775 765 771 771 781 782 778 786 752 745 738 730 730 734 737 740
815 813 809 809 807 807 803 798 796 800 796 760 749 751 752 746 743 741 744 742 740 751 752 754 747 751 751 749 756 760 765 775 782 784 793 774 778 757 744 731 730 732 735 739 741
813 812 808 808 810 805 801 799 805 802 767 764 765 761 762 755 747 742 750 754 754 761 759 751 752 746 743 753 756 759 769 795 790 800 788 772 783 751 731 728 727 725 735 739 742
810 808 807 807 807 804 802 802 805 785 783 776 777 766 765 760 751 753 748 756 750 743 751 755 762 744 736 739 751 759 761 784 790 802 790 775 780 742 721 722 724 723 730 738 743
809 807 809 807 807 807 807 816 801 797 797 797 786 778 771 774 776 764 752 752 754 745 753 752 747 729 728 728 739 755 762 753 779 787 791 773 755 728 723 726 727 728 728 735 742
810 809 811 808 808 808 821 811 807 806 805 804 801 795 793 793 786 782 768 760 757 756 753 747 748 725 724 730 736 741 743 760 774 776 776 767 761 744 722 723 727 731 731 735 740
813 815 814 811 808 814 834 829 815 808 812 816 813 812 805 801 793 793 777 764 760 760 759 765 754 735 727 729 738 743 748 749 747 762 766 767 756 726 720 719 723 728 730 732 736
813 820 817 813 822 824 831 818 816 812 815 813 810 809 809 804 802 797 788 771 766 763 761 763 770 760 735 724 719 725 734 737 751 761 767 761 749 718 722 721 720 727 731 734 735
815 819 817 816 844 845 828 823 820 817 815 812 809 804 802 804 807 797 790 777 775 769 764 761 768 757 739 732 734 744 752 755 753 750 749 760 746 720 721 723 723 729 733 737 738
819 833 824 822 828 822 827 827 822 815 813 810 806 804 805 805 799 795 795 785 776 775 767 765 762 764 760 761 772 763 764 764 761 763 748 743 734 722 718 722 724 727 731 735 739
822 833 825 843 837 826 830 830 827 827 814 810 806 803 802 805 803 795 787 787 782 773 769 771 770 764 756 756 774 779 774 768 771 768 769 751 752 726 718 715 719 720 728 731 733
823 827 826 835 830 830 832 832 827 819 818 810 805 799 798 803 796 795 790 789 787 782 779 771 769 764 767 754 753 759 764 760 758 760 762 755 747 726 718 718 717 719 724 725 727
815 817 822 824 825 828 822 820 816 815 811 804 801 800 798 785 787 786 787 786 784 786 787 787 772 780 789 771 765 765 744 750 741 742 746 747 731 723 719 715 713 715 717 715 715
Wind_Speed
16 17 18 18 18 18 18 18 18 18 18 19 19 20 22 20 20 9 7 8 6 11 10 9 5 1 2 2 3 2 3 2 4 4 4 2 2 2 2 4 1 4 5 0 19
17 18 19 19 20 20 20 20 20 19 18 18 19 21 21 19 17 10 12 8 7 16 12 11 4 4 2 1 2 4 3 6 4 3 3 1 1 1 2 1 2 1 2 5 20
17 18 20 22 23 24 23 23 22 20 19 18 18 19 18 15 5 6 2 13 13 16 7 8 10 4 2 2 2 3 5 4 4 5 3 2 2 4 5 4 7 7 5 6 9
19 21 22 23 25 26 26 23 20 21 20 18 17 17 15 6 5 1 4 17 18 16 11 7 3 5 4 4 3 1 7 5 5 3 3 3 2 4 7 9 6 10 6 6 9
20 22 24 26 28 30 28 25 22 21 19 17 14 14 5 2 9 6 1 18 18 19 13 5 4 4 4 4 3 4 5 5 8 9 6 5 8 7 6 10 6 3 7 9 8
20 22 24 27 32 30 25 24 23 24 23 18 14 9 1 4 4 4 8 19 19 20 10 9 7 6 3 3 4 3 4 7 7 8 4 4 5 6 7 4 7 6 9 9 10
21 23 26 30 32 27 26 24 23 26 22 16 12 3 3 14 5 1 9 17 18 21 6 10 8 5 3 2 2 3 6 7 7 4 7 5 8 8 9 4 7 9 9 9 11
22 25 29 32 31 30 26 23 21 14 10 6 3 5 7 4 5 13 10 10 15 15 4 13 9 4 3 2 6 3 2 4 5 3 3 7 9 12 5 8 11 10 9 8 7
22 25 29 32 30 31 31 23 7 6 5 4 4 3 9 6 4 9 14 7 10 11 8 1 5 4 4 5 4 4 4 4 8 2 2 4 7 6 4 5 10 10 10 8 7
23 26 29 31 29 30 28 8 5 4 5 2 2 2 5 2 2 2 12 10 4 4 1 2 3 3 3 4 6 5 4 4 6 2 1 4 12 12 12 7 11 9 7 8 8
22 25 27 30 22 28 26 3 7 4 6 4 3 5 5 12 8 3 8 10 5 4 7 2 2 11 9 7 5 4 3 5 4 7 4 8 10 13 12 5 9 10 9 9 10
21 24 27 30 15 18 30 7 4 4 10 6 14 12 19 12 6 4 10 7 6 7 6 1 12 7 6 6 6 5 3 8 7 8 4 8 18 13 10 11 13 15 13 12 6
21 24 28 30 8 19 14 12 18 2 3 10 5 5 4 8 6 12 8 4 5 7 8 10 5 8 12 5 7 5 6 4 8 5 5 6 9 5 5 5 6 6 6 6 13
18 22 26 24 3 15 3 22 21 6 4 7 4 5 4 4 5 7 16 7 6 14 7 8 10 3 4 7 8 6 8 10 8 2 4 3 7 5 7 9 6 6 4 5 8
18 19 22 18 10 4 15 27 9 4 5 1 1 4 3 3 6 4 4 1 7 6 7 7 6 14 16 9 7 8 6 7 4 4 1 3 3 6 3 7 8 6 3 4 6
16 17 19 14 14 7 24 24 2 4 7 5 1 3 3 2 3 3 1 2 4 5 3 5 3 6 7 10 13 1 3 4 4 3 2 7 7 5 4 4 5 3 3 5 7
15 16 13 14 9 23 19 6 3 3 5 5 4 6 6 4 4 3 5 7 7 6 13 5 9 4 4 6 2 5 4 1 1 1 6 1 1 9 6 7 5 4 7 7 7
14 12 12 7 16 12 7 3 3 2 5 5 7 9 4 6 2 5 2 4 9 3 3 7 7 15 9 19 8 7 8 5 6 4 4 2 5 6 4 3 6 6 8 8 8
10 8 10 11 10 4 4 2 4 3 5 9 9 6 5 6 6 6 3 2 4 4 7 6 7 4 10 17 11 7 7 7 5 1 2 4 6 9 2 4 5 4 11 11 8
5 3 11 8 6 5 4 4 2 4 5 6 3 6 5 9 9 9 4 4 3 7 3 5 6 6 1 6 2 12 8 3 1 4 4 4 3 8 5 7 4 5 8 8 8
2 3 6 8 3 4 2 5 4 3 9 7 4 5 5 5 5 7 6 6 4 6 6 5 3 2 6 7 11 4 5 0 3 5 5 1 5 5 3 8 8 7 7 11 11
3 2 8 7 3 1 2 1 6 8 6 5 4 7 9 8 4 5 7 3 16 6 12 2 3 3 13 3 3 6 7 9 4 4 3 3 6 2 3 6 3 5 5 7 10
3 1 5 4 2 1 5 4 5 7 8 3 6 7 4 5 6 4 4 9 17 7 4 2 1 3 3 2 4 6 5 7 3 2 10 6 4 1 5 4 3 5 5 5 8
3 2 3 4 1 3 1 5 4 4 12 7 8 10 10 11 11 9 9 7 13 13 21 11 3 7 7 3 5 5 10 11 5 1 3 7 8 6 3 2 2 5 7 8 7
3 2 3 2 3 3 2 4 8 7 5 8 5 9 10 4 9 16 14 8 8 15 10 5 7 5 7 9 6 8 14 13 10 6 4 5 9 12 8 5 5 7 7 9 11
4 3 1 3 1 2 3 3 6 10 5 7 9 12 10 12 15 16 12 10 7 8 7 3 10 5 3 8 11 12 15 17 15 12 12 14 12 13 10 2 3 7 8 11 12
2 3 4 4 3 3 4 5 7 7 9 14 14 12 14 21 11 10 8 9 7 7 10 6 5 3 4 3 5 9 15 15 13 8 6 11 7 12 13 7 6 7 10 14 15
Wind_Direction
359 358 356 352 349 346 342 338 334 332 331 331 333 332 331 329 320 296 242 233 217 183 171 154 159 128 67 94 89 100 66 265 256 197 252 309 174 148 117 136 160 180 163 232 163
5 0 355 351 346 341 336 332 327 324 323 325 327 331 331 327 316 253 267 211 187 176 166 158 154 130 60 59 48 108 138 224 221 246 253 265 173 147 117 165 258 219 259 137 160
2 357 352 348 345 341 335 330 326 320 316 317 321 327 330 329 312 250 301 187 168 177 177 159 139 110 121 90 214 179 197 224 274 253 269 292 277 185 164 218 224 208 201 169 167
358 354 350 349 345 340 334 326 321 318 316 314 317 326 328 334 296 221 330 172 177 175 153 136 82 112 146 197 176 220 243 239 274 274 315 259 259 239 186 222 213 218 202 172 181
354 352 350 349 346 340 335 330 324 320 317 310 307 321 335 303 251 266 246 169 175 174 171 143 133 138 180 195 166 199 259 252 249 277 255 273 245 233 240 241 233 236 177 199 202
354 352 350 351 347 343 340 334 325 318 311 301 294 309 154 254 275 290 201 179 178 176 169 146 178 189 187 208 175 212 245 271 282 270 256 229 270 153 255 234 206 195 212 213 206
352 352 352 352 349 348 341 332 322 315 308 295 283 223 170 239 206 147 197 197 192 187 151 191 153 130 149 266 262 297 313 315 244 250 226 167 287 235 238 184 207 221 228 228 222
352 351 351 352 351 349 342 328 320 322 327 305 188 158 249 275 267 249 218 215 216 204 170 204 186 144 166 168 13 353 28 322 279 123 289 144 267 277 256 189 232 225 229 230 232
353 352 351 351 350 351 344 333 327 359 22 98 125 149 267 310 259 257 210 176 184 206 224 130 146 151 75 101 5 360 254 238 314 221 115 191 267 274 23 219 250 228 232 228 224
350 350 351 351 350 354 350 343 340 344 10 12 62 340 276 300 316 211 192 175 144 125 134 159 44 142 84 117 225 213 231 240 248 289 326 234 259 268 277 201 248 265 254 223 221
345 347 350 352 351 2 357 39 16 353 18 255 260 260 282 321 297 231 172 141 107 113 186 208 169 224 187 191 186 147 202 254 258 267 304 264 267 269 267 236 242 240 232 228 222
344 346 348 353 2 11 41 67 49 278 307 245 250 249 272 289 310 306 162 147 149 188 132 54 234 224 192 193 203 203 246 274 282 275 188 281 283 265 247 246 234 229 222 211 175
344 347 347 351 357 19 55 47 353 333 254 294 222 238 248 164 231 228 168 156 164 164 190 203 219 211 190 182 194 217 213 220 236 325 281 307 285 268 285 254 252 227 224 199 193
343 349 350 357 11 350 34 341 343 160 10 279 277 272 157 174 255 217 203 149 196 199 164 232 218 188 156 215 192 252 210 228 246 94 250 1 291 254 273 300 262 255 260 216 153
339 348 350 359 331 358 328 335 351 163 354 250 200 180 135 187 291 22 169 290 186 166 150 232 185 212 226 203 158 227 172 194 207 188 357 282 288 270 339 305 297 259 248 178 144
333 345 352 351 338 340 332 330 155 44 247 319 70 352 19 250 278 53 51 295 171 174 262 230 212 181 217 227 207 139 135 55 51 105 257 224 195 286 266 230 301 298 197 171 143
330 339 350 339 317 320 332 339 16 173 344 336 344 3 334 285 300 180 184 193 206 169 232 234 231 238 188 169 113 167 120 309 309 357 230 87 185 253 278 249 235 231 193 160 144
335 334 339 13 335 320 345 53 215 288 283 359 352 320 262 7 283 326 213 233 237 260 161 177 265 201 200 216 185 181 169 171 203 204 245 66 234 250 227 300 277 238 150 140 147
347 1 24 357 7 15 67 113 230 358 347 347 331 295 298 1 3 353 261 196 28 235 220 192 240 225 223 215 184 188 201 195 104 57 39 226 285 299 62 327 347 161 149 159 157
3 53 17 26 46 43 64 253 286 49 2 349 301 24 327 344 352 13 313 348 26 37 339 311 273 193 154 111 168 210 156 139 5 188 235 273 261 239 306 300 247 191 174 152 147
57 63 356 19 52 60 163 248 301 123 42 15 338 322 327 309 341 342 292 310 30 358 50 359 308 285 142 179 184 145 199 74 160 157 181 213 254 207 232 288 269 212 188 161 157
78 57 348 4 60 76 162 232 328 325 10 277 237 254 260 278 289 257 246 284 329 309 306 89 313 277 239 330 146 177 181 209 206 233 238 177 248 115 302 309 287 183 170 154 152
101 133 359 3 109 324 313 301 300 293 282 243 263 265 295 288 295 261 300 306 327 327 20 348 250 288 196 64 19 61 27 17 318 48 212 183 253 100 49 18 95 145 149 153 156
85 62 331 49 168 136 289 267 249 301 282 263 273 272 271 269 260 261 291 302 301 298 300 313 254 192 273 10 8 325 352 357 349 224 278 227 252 272 177 201 163 158 171 168 182
50 221 164 285 285 155 97 296 292 290 239 287 269 266 287 268 295 280 276 302 312 295 287 240 247 225 239 251 195 255 294 299 284 284 283 325 309 291 265 253 202 199 169 177 189
134 140 0 240 236 122 204 217 233 277 259 282 259 284 276 277 256 275 292 281 257 314 311 237 253 236 267 254 236 241 240 247 251 261 260 251 264 270 283 79 199 197 183 203 203
108 115 117 228 171 146 223 220 250 288 270 253 268 281 284 258 274 273 273 265 237 256 268 296 180 143 246 297 282 249 237 229 246 212 215 263 250 286 287 234 226 219 203 213 209